Location: ??
(34.9170°N, 135.5016°E)
Time: 01:16:51
(UTC+00:00)

SKYMED 2 - Pass Details

Date: 29 October 2020
Orbit: 621 x 623 km, 97.9° (Epoch: 25 November)

Event Time Altitude Azimuth Distance (km) Brightness Sun altitude
Rises 20:37:37 0° 180° (S) 2,888 7.1 -8.7°
Reaches altitude 10° 20:39:51 10° 186° (S) 1,986 6.2 -8.2°
Maximum altitude 20:44:01 48° 260° (W) 821 3.8 -7.4°
Drops below altitude 10° 20:48:14 10° 335° (NNW) 1,998 5.8 -6.5°
Sets 20:50:30 0° 341° (NNW) 2,908 6.7 -6.1°
